[[{"header":{"parameterUnit":"m.s-1","parameterCategory":2,"la1":30.2991,"la2":30.254,"lo1":-89.0895,"lo2":-89.0444,"dy":0.0017,"dx":0.0017,"nx":28,"ny":28,"refTime":"2024-02-03T09:00:00:Z","depth":"0","parameterNumber":2,"parameterNumberName":"U-component_of_CURRENTS"},"data":[0,0,0,0,0,0,0,0,0,0,0,0,0,0,0,0,0,0,0,0,0,0,0,0,0,0,0,0,0,0,0,0,0,0,0,0,0,0,0,0,0,0,0,0,0,0,0,0,0,0,0,0,0,0,0,0,0,0,0.2617,0.2617,0,0.262,0.262,0.2621,0.2657,0.2658,0.2659,0.266,0.2731,0.2731,0.2733,0,0,0,0,0,0,0,0,0,0,0,0,0,0.2578,0.2579,0.2617,0.2617,0.2617,0.262,0.262,0.2621,0.2657,0.2658,0.2659,0.266,0.273,0.2731,0.2733,0,0,0,0,0,0,0,0,0,0,0,0,0,0.259,0.258,0.2617,0.2636,0.2637,0.262,0.2621,0.2621,0.2656,0.2658,0.2659,0.2661,0.273,0.2731,0.2733,0.2714,0,0,0.2737,0.2738,0,0,0,0,0,0,0,0,0.2589,0.2591,0.2633,0.2634,0.2636,0.264,0.2633,0.2655,0.2656,0.2649,0.266,0.2661,0.2706,0.2709,0.2705,0.2718,0.2721,0.2738,0.2739,0.2739,0.274,0,0,0,0,0,0,0,0.2588,0.2591,0.2618,0.2633,0.2635,0.2622,0.2626,0.2637,0.2671,0.265,0.2652,0.2653,0.2707,0.2704,0.2708,0.2722,0.2738,0.2739,0.274,0.274,0.2809,0.2809,0,0,0,0,0,0,0.259,0.259,0.2618,0.2618,0.2616,0.2622,0.2626,0.2637,0.2669,0.2675,0.2651,0.2654,0.27,0.2706,0.271,0.2724,0.2739,0.2741,0.2741,0.2808,0.2809,0.281,0,0,0,0,0,0,0.259,0.2593,0.2618,0.2604,0.2606,0.2622,0.2633,0.2636,0.2642,0.267,0.2677,0.2655,0.2702,0.2708,0.2723,0.2727,0.2741,0.2743,0.2807,0.2808,0.2809,0.2731,0,0,0,0,0,0,0.2589,0.2593,0.26,0.2604,0.2607,0.2596,0.2632,0.2636,0.264,0.2644,0.2675,0.2683,0.2703,0.2721,0.2725,0.2729,0.2744,0.2806,0.2807,0.2809,0.2733,0.273,0.2727,0,0,0,0,0,0.2587,0.2589,0.2601,0.2604,0.2617,0.2595,0.2594,0.261,0.2639,0.2624,0.2658,0.2682,0.2736,0.2721,0.2726,0.2731,0.2805,0.2807,0.2809,0.2734,0.273,0.2727,0,0,0,0,0,0,0.2573,0.2592,0.2606,0.2614,0.26,0.2601,0.2595,0.2608,0.2621,0.2637,0.2673,0.2681,0.2707,0.273,0.2713,0.2762,0.2782,0.2785,0.2724,0.2721,0.2718,0.2709,0.2745,0,0,0,0,0,0.2573,0.2584,0.2585,0.2589,0.2584,0.2591,0.2587,0.2595,0.2606,0.2614,0.2634,0.2675,0.2716,0.2725,0.2758,0.2761,0.28,0.2779,0.2776,0.2773,0.2772,0.2857,0.2862,0.2816,0.2816,0.2816,0,0,0.257,0.2581,0.2588,0.2587,0.2584,0.256,0.2592,0.2581,0.2566,0.262,0.2612,0.2663,0.272,0.2736,0.275,0.2752,0.2798,0.2775,0.2772,0.2773,0.286,0.2864,0.2868,0.2818,0.2817,0.2817,0,0,0.255,0.2575,0.2567,0.2556,0.2547,0.2542,0.2538,0.2533,0.2538,0.2528,0.2591,0.2639,0.2662,0.2712,0.2743,0.2746,0.2789,0.2766,0.2727,0.2808,0.2812,0.2817,0.2826,0.2832,0.2753,0.2753,0.2753,0,0.2542,0.254,0.2555,0.2534,0.2527,0.2532,0.2508,0.2498,0.2499,0.2511,0.2517,0.2607,0.2654,0.2709,0.2718,0.2738,0.2771,0.2725,0.2802,0.2808,0.2814,0.2823,0.2831,0.2749,0.275,0.275,0.2751,0,0.2505,0.2504,0.2494,0.2477,0.2465,0.2443,0.2434,0.2426,0.2436,0.2441,0.2485,0.2542,0.2606,0.2632,0.2671,0.2742,0.2745,0.2794,0.2802,0.2813,0.2822,0.2831,0.2744,0.2746,0.2747,0.2748,0,0,0.2478,0.2472,0.2467,0.2461,0.2439,0.2425,0.2402,0.239,0.2408,0.2396,0.2426,0.249,0.2539,0.2582,0.2647,0.2705,0.2764,0.2758,0.2764,0.2749,0.2896,0.2822,0.2825,0.2832,0.2834,0.2836,0.2869,0,0.2438,0.2404,0.2412,0.2375,0.2355,0.2368,0.2356,0.2355,0.2367,0.2389,0.244,0.2498,0.2513,0.2573,0.2624,0.2761,0.2792,0.2747,0.2905,0.2908,0.2828,0.2836,0.2854,0.2881,0.2878,0.288,0.2881,0,0.2385,0.2377,0.234,0.2352,0.2348,0.2331,0.2348,0.2343,0.2375,0.2402,0.2439,0.2485,0.2562,0.2593,0.2737,0.2709,0.279,0.2863,0.2868,0.2837,0.2853,0.2883,0.2898,0.2838,0.2896,0.2894,0.2893,0,0.234,0.2327,0.2305,0.2299,0.2302,0.2308,0.232,0.2348,0.2381,0.2426,0.2481,0.2523,0.2613,0.2687,0.28,0.2793,0.2958,0.2975,0.2956,0.2949,0.3015,0.301,0.2981,0.3074,0.3074,0.3074,0.3074,0,0.2284,0.2263,0.229,0.2269,0.2272,0.2297,0.2322,0.2343,0.2417,0.2484,0.2503,0.2591,0.266,0.2745,0.2805,0.2889,0.2958,0.2942,0.2966,0.2981,0.2973,0.2964,0.2905,0.3075,0.3075,0.3075,0.3075,0,0.2205,0.2224,0.2198,0.2222,0.2241,0.2241,0.2325,0.2362,0.2444,0.2542,0.257,0.2675,0.2788,0.2813,0.2963,0.2929,0.2897,0.3021,0.298,0.2997,0.2863,0.2799,0.26,0.2418,0.2972,0.2971,0.2969,0,0.2153,0.2132,0.2154,0.2166,0.2174,0.221,0.2253,0.2347,0.2412,0.2612,0.2667,0.2799,0.2912,0.3013,0.2997,0.301,0.289,0.2978,0.2962,0.284,0.279,0.259,0.2435,0.3008,0.3007,0.3006,0.3006,0,0.2052,0.2063,0.2057,0.209,0.2129,0.2168,0.2248,0.2306,0.2458,0.2572,0.2757,0.2879,0.3025,0.3086,0.3064,0.304,0.2779,0.2959,0.2902,0.2849,0.257,0.2414,0.2941,0.3,0.3001,0.3001,0.3001,0.3002,0.1982,0.1964,0.1986,0.2006,0.2056,0.2104,0.2107,0.2238,0.2346,0.2503,0.2727,0.2892,0.3151,0.3152,0.3021,0.2856,0.2743,0.2834,0.2774,0.2585,0.2374,0.2815,0.2857,0.2857,0.2857,0.2856,0.2856,0,0.1886,0.1895,0.1913,0.193,0.1937,0.2001,0.2084,0.2085,0.2169,0.2412,0.2576,0.292,0.3054,0.3087,0.308,0.2822,0.2509,0.2653,0.2454,0.2307,0.2832,0.2805,0.2755,0.2755,0.2755,0.2755,0.2756,0.2756,0.1844,0.1815,0.1826,0.1801,0.1818,0.178,0.179,0.1838,0.1964,0.2196,0.2407,0.2634,0.3024,0.3182,0.3003,0.2802,0.2359,0.2245,0.202,0.2546,0.256,0.2574,0.2537,0.2433,0.2432,0.1451,0.1444,0.1439]},{"header":{"parameterUnit":"m.s-1","parameterCategory":2,"la1":30.2991,"la2":30.254,"lo1":-89.0895,"lo2":-89.0444,"dy":0.0017,"dx":0.0017,"nx":28,"ny":28,"refTime":"2024-02-03T09:00:00:Z","depth":"0","parameterNumber":3,"parameterNumberName":"V-component_of_CURRENTS"},"data":[0,0,0,0,0,0,0,0,0,0,0,0,0,0,0,0,0,0,0,0,0,0,0,0,0,0,0,0,0,0,0,0,0,0,0,0,0,0,0,0,0,0,0,0,0,0,0,0,0,0,0,0,0,0,0,0,0,0,0.0101,0.01,0,0.0045,0.0044,0.0043,0.0013,0.0013,0.0013,0.0013,-0.0093,-0.0096,-0.0099,0,0,0,0,0,0,0,0,0,0,0,0,0,0.014,0.0139,0.0101,0.01,0.0099,0.0045,0.0044,0.0043,0.0013,0.0013,0.0013,0.0013,-0.0092,-0.0096,-0.0099,0,0,0,0,0,0,0,0,0,0,0,0,0,0.0107,0.0139,0.0101,0.0078,0.0075,0.0045,0.0044,0.0043,0.0013,0.0013,0.0013,0.0013,-0.0091,-0.0095,-0.0099,-0.0124,0,0,-0.0112,-0.0114,0,0,0,0,0,0,0,0,0.0109,0.0105,0.0082,0.008,0.0077,0.0036,0.0019,-0.0015,0.0013,0.0036,0.0013,0.0013,-0.0054,-0.0062,-0.0072,-0.0129,-0.0134,-0.0113,-0.0115,-0.0117,-0.0118,0,0,0,0,0,0,0,0.0111,0.0107,0.0078,0.0081,0.0078,0.0056,0.0052,0.0012,-0.0009,0.0034,0.0032,0.0026,-0.0056,-0.0068,-0.0075,-0.0135,-0.0112,-0.0116,-0.0119,-0.012,-0.0136,-0.0134,0,0,0,0,0,0,0.0121,0.011,0.008,0.0076,0.0093,0.0056,0.0051,0.0049,-0.0008,-0.0016,0.0026,0.0025,-0.0061,-0.007,-0.0079,-0.0041,-0.0117,-0.0121,-0.0123,-0.0138,-0.0135,-0.0133,0,0,0,0,0,0,0.0122,0.0119,0.0082,0.0092,0.0086,0.0056,0.0053,0.0048,0.0041,-0.0013,-0.0022,0.0026,-0.0061,-0.0073,-0.0083,-0.0048,-0.0123,-0.0127,-0.014,-0.0137,-0.0134,-0.0011,0,0,0,0,0,0,0.0124,0.012,0.0123,0.0093,0.0086,0.0073,0.0053,0.0047,0.0038,0.0036,-0.0017,-0.0027,-0.0062,-0.0076,-0.0087,-0.0055,-0.013,-0.0143,-0.0139,-0.0135,-0.0018,-0.0004,0.0007,0,0,0,0,0,0.0125,0.0124,0.0124,0.012,0.0091,0.0074,0.0068,0.0046,0.0038,0.0039,0.0022,-0.0025,-0.0059,-0.0078,-0.0092,-0.006,-0.0145,-0.014,-0.0135,-0.0024,-0.0007,0.0007,0,0,0,0,0,0,0.0145,0.0121,0.0119,0.0112,0.0101,0.0069,0.0061,0.0052,0.0038,0.0034,-0.0008,-0.0019,-0.0011,-0.0052,-0.0072,-0.0049,-0.0106,-0.0104,-0.0016,-0.0002,0.0011,0.0052,-0.0133,0,0,0,0,0,0.0152,0.0145,0.0126,0.0123,0.0116,0.0093,0.0084,0.0071,0.0053,0.0046,0.0023,0.0001,-0.0004,-0.0015,-0.0036,-0.0036,-0.0067,-0.002,-0.0007,0.0004,0.0031,0.0024,0.0039,-0.0118,-0.0118,-0.0118,0,0,0.0159,0.0146,0.0142,0.0127,0.0112,0.011,0.0087,0.0074,0.0094,0.0035,0.0056,0.0038,0.0007,0.0024,0.0023,-0.0007,0.0029,0.001,0.002,0.0041,0.0031,0.0046,0.0059,-0.0114,-0.0115,-0.0115,0,0,0.0165,0.0159,0.0153,0.0145,0.0127,0.0121,0.0123,0.0104,0.0119,0.0133,0.0114,0.0131,0.0097,0.0108,0.0103,0.0171,0.0097,0.0154,0.0247,0.024,0.0253,0.0264,0.023,0.0237,0.0159,0.016,0.016,0,0.0178,0.017,0.0151,0.0145,0.0143,0.0131,0.0134,0.0152,0.0143,0.0177,0.0155,0.0184,0.015,0.0205,0.0238,0.0201,0.0171,0.019,0.0257,0.0268,0.0277,0.0239,0.0245,0.0166,0.0165,0.0165,0.0164,0,0.018,0.0175,0.0171,0.0167,0.0166,0.0164,0.0182,0.0207,0.0226,0.0256,0.0323,0.0308,0.033,0.0328,0.0302,0.0366,0.0313,0.0273,0.0219,0.03,0.0254,0.0258,0.0175,0.0173,0.0171,0.0169,0,0,0.0208,0.0179,0.018,0.0184,0.0177,0.0181,0.0228,0.0282,0.0334,0.0374,0.046,0.0486,0.05,0.0499,0.0479,0.0488,0.0517,0.0419,0.0415,0.0386,0.0482,0.0529,0.0536,0.0483,0.0484,0.0486,0.0418,0,0.0221,0.0217,0.02,0.0216,0.022,0.0228,0.0275,0.0328,0.0382,0.0467,0.0529,0.0582,0.056,0.057,0.0594,0.0563,0.0537,0.0538,0.0408,0.0404,0.0437,0.0547,0.0619,0.0574,0.0422,0.0422,0.0423,0,0.0237,0.0232,0.0239,0.025,0.0253,0.0268,0.0344,0.0382,0.0502,0.0545,0.0641,0.0681,0.0774,0.0699,0.0714,0.0716,0.0605,0.0555,0.0549,0.0561,0.0462,0.0471,0.0586,0.0456,0.0428,0.0428,0.0427,0,0.0277,0.0267,0.0279,0.0278,0.0288,0.0312,0.0333,0.0418,0.0484,0.0602,0.066,0.0776,0.0826,0.0787,0.0768,0.0712,0.0756,0.0643,0.0564,0.0562,0.0588,0.0588,0.0572,0.0574,0.0575,0.0575,0.0575,0,0.0305,0.0314,0.0298,0.0306,0.0351,0.0336,0.0415,0.0451,0.054,0.0649,0.0704,0.0802,0.0845,0.0904,0.082,0.0789,0.0794,0.0621,0.0576,0.0632,0.0637,0.0493,0.0341,0.0572,0.0573,0.0573,0.0574,0,0.0344,0.0329,0.0353,0.036,0.0368,0.0405,0.0459,0.0537,0.0565,0.0705,0.0747,0.0855,0.0943,0.0983,0.0939,0.085,0.0707,0.0731,0.0807,0.0776,0.0562,0.0413,0.0273,0.0173,0.0618,0.0619,0.062,0,0.036,0.0368,0.04,0.0451,0.0456,0.0502,0.0559,0.0573,0.0653,0.0746,0.0834,0.094,0.1061,0.108,0.1038,0.0965,0.0736,0.0844,0.0748,0.0615,0.0413,0.0277,0.019,0.0798,0.0801,0.0803,0.0804,0,0.0398,0.0412,0.0451,0.0558,0.062,0.0678,0.0739,0.0786,0.0829,0.0913,0.1031,0.1111,0.1167,0.1203,0.1122,0.1044,0.0742,0.0874,0.0725,0.0575,0.0435,0.0297,0.0742,0.0822,0.082,0.0819,0.0818,0.0817,0.0447,0.0511,0.0591,0.0699,0.0778,0.0862,0.0909,0.0982,0.108,0.12,0.122,0.1358,0.13,0.1253,0.1132,0.0946,0.0785,0.0781,0.0611,0.0487,0.0414,0.0907,0.0951,0.095,0.0949,0.0948,0.0947,0,0.053,0.062,0.0735,0.0868,0.0977,0.0976,0.1054,0.1099,0.1214,0.137,0.1475,0.1587,0.1435,0.1273,0.0996,0.0723,0.0583,0.0571,0.0389,0.0306,0.0768,0.0808,0.0841,0.0841,0.0841,0.0841,0.0841,0.0841,0.0591,0.0734,0.081,0.1027,0.1107,0.1196,0.1226,0.1281,0.1384,0.157,0.1737,0.1878,0.1804,0.096,0.0499,0.0407,0.0107,0.0104,-0.0117,0.021,0.0216,0.0222,0.0233,0.0145,0.0144,-0.0481,-0.0488,-0.0492]}],[{"header":{"parameterUnit":"m.s-1","parameterCategory":2,"la1":30.2991,"la2":30.254,"lo1":-89.0895,"lo2":-89.0444,"dy":0.0017,"dx":0.0017,"nx":28,"ny":28,"refTime":"2024-02-03T09:00:00:Z","depth":"2","parameterNumber":2,"parameterNumberName":"U-component_of_CURRENTS"},"data":[0,0,0,0,0,0,0,0,0,0,0,0,0,0,0,0,0,0,0,0,0,0,0,0,0,0,0,0,0,0,0,0,0,0,0,0,0,0,0,0,0,0,0,0,0,0,0,0,0,0,0,0,0,0,0,0,0,0,0.2638,0.2638,0,0.2643,0.2643,0.2643,0.2679,0.268,0.2681,0.2682,0.2754,0.2755,0.2756,0,0,0,0,0,0,0,0,0,0,0,0,0,0.2599,0.26,0.2638,0.2638,0.2638,0.2643,0.2643,0.2643,0.2679,0.268,0.2681,0.2682,0.2754,0.2755,0.2756,0,0,0,0,0,0,0,0,0,0,0,0,0,0.2611,0.26,0.2638,0.2657,0.2659,0.2643,0.2643,0.2643,0.2679,0.268,0.2682,0.2683,0.2753,0.2755,0.2756,0.2739,0,0,0.2761,0.2762,0,0,0,0,0,0,0,0,0.261,0.2612,0.2654,0.2656,0.2658,0.2662,0.2655,0.2678,0.2678,0.2671,0.2682,0.2684,0.2729,0.2732,0.2729,0.2742,0.2745,0.2761,0.2762,0.2763,0.2764,0,0,0,0,0,0,0,0.2609,0.2612,0.264,0.2654,0.2656,0.2644,0.2648,0.2659,0.2693,0.2672,0.2674,0.2675,0.273,0.2727,0.2731,0.2747,0.2761,0.2763,0.2764,0.2765,0.2834,0.2835,0,0,0,0,0,0,0.2611,0.2611,0.264,0.264,0.2637,0.2644,0.2648,0.2659,0.2692,0.2697,0.2674,0.2676,0.2724,0.2729,0.2734,0.2749,0.2763,0.2765,0.2766,0.2833,0.2834,0.2835,0,0,0,0,0,0,0.261,0.2614,0.2639,0.2625,0.2628,0.2644,0.2655,0.2658,0.2664,0.2692,0.27,0.2678,0.2725,0.2732,0.2747,0.2751,0.2765,0.2767,0.2832,0.2834,0.2835,0.2758,0,0,0,0,0,0,0.2609,0.2614,0.2621,0.2626,0.2629,0.2619,0.2654,0.2658,0.2662,0.2666,0.2698,0.2705,0.2727,0.2745,0.2749,0.2754,0.2768,0.2831,0.2833,0.2834,0.276,0.2757,0.2754,0,0,0,0,0,0.2608,0.2609,0.2621,0.2624,0.2639,0.2618,0.2617,0.2633,0.2661,0.2647,0.2681,0.2705,0.276,0.2745,0.2751,0.2756,0.283,0.2832,0.2834,0.2761,0.2757,0.2754,0,0,0,0,0,0,0.2593,0.2613,0.2627,0.2635,0.2622,0.2624,0.2618,0.2631,0.2645,0.266,0.2696,0.2704,0.2731,0.2754,0.2738,0.2788,0.2807,0.281,0.275,0.2747,0.2744,0.2734,0.2769,0,0,0,0,0,0.2594,0.2605,0.2607,0.2611,0.2606,0.2613,0.261,0.2617,0.263,0.2638,0.2658,0.2699,0.2741,0.275,0.2784,0.2787,0.2826,0.2805,0.2802,0.2799,0.2799,0.2883,0.2888,0.2842,0.2842,0.2842,0,0,0.2591,0.2601,0.2609,0.2608,0.2606,0.2583,0.2614,0.2604,0.259,0.2644,0.2637,0.2687,0.2744,0.2761,0.2776,0.2777,0.2825,0.2802,0.2799,0.28,0.2886,0.289,0.2894,0.2843,0.2843,0.2843,0,0,0.2571,0.2596,0.2589,0.2578,0.257,0.2566,0.2562,0.2558,0.2563,0.2554,0.2617,0.2664,0.2688,0.2739,0.277,0.2773,0.2816,0.2793,0.2755,0.2836,0.284,0.2844,0.2854,0.286,0.2781,0.278,0.278,0,0.2563,0.2562,0.2577,0.2557,0.2551,0.2556,0.2533,0.2524,0.2525,0.2538,0.2544,0.2634,0.2681,0.2736,0.2745,0.2765,0.2798,0.2753,0.283,0.2835,0.2841,0.2851,0.2859,0.2777,0.2777,0.2778,0.2778,0,0.2527,0.2528,0.2517,0.2502,0.249,0.247,0.2462,0.2454,0.2464,0.2469,0.2513,0.257,0.2635,0.266,0.2699,0.277,0.2773,0.2822,0.2829,0.2841,0.285,0.2859,0.2772,0.2773,0.2774,0.2775,0,0,0.25,0.2496,0.2491,0.2486,0.2466,0.2452,0.243,0.242,0.2438,0.2426,0.2456,0.2521,0.2569,0.2611,0.2676,0.2735,0.2793,0.2787,0.2793,0.2778,0.2925,0.2851,0.2854,0.286,0.2862,0.2864,0.2898,0,0.2462,0.2429,0.2438,0.2403,0.2384,0.2397,0.2386,0.2386,0.2398,0.2421,0.247,0.2528,0.2543,0.2603,0.2654,0.2789,0.2821,0.2776,0.2933,0.2936,0.2856,0.2864,0.2701,0.2713,0.2907,0.2909,0.291,0,0.241,0.2402,0.2368,0.2381,0.2378,0.2362,0.238,0.2375,0.2408,0.2434,0.2471,0.2516,0.2592,0.2623,0.2767,0.2739,0.2819,0.2892,0.2897,0.2865,0.2881,0.2746,0.2723,0.2926,0.2925,0.2923,0.2922,0,0.2365,0.2354,0.2334,0.2328,0.2333,0.234,0.2352,0.2381,0.2413,0.2458,0.2512,0.2554,0.2643,0.2717,0.2829,0.2822,0.2986,0.3003,0.2985,0.2978,0.2888,0.287,0.3102,0.3102,0.3102,0.3102,0.3102,0,0.231,0.229,0.2319,0.2298,0.2303,0.2328,0.2355,0.2376,0.2449,0.2516,0.2535,0.2621,0.2689,0.2774,0.2834,0.2918,0.2986,0.2971,0.2995,0.285,0.283,0.3069,0.3065,0.3103,0.3103,0.3103,0.3103,0,0.2232,0.2251,0.2228,0.2253,0.2272,0.2273,0.2357,0.2395,0.2476,0.2573,0.26,0.2704,0.2815,0.284,0.299,0.2957,0.3031,0.3049,0.2827,0.2823,0.2951,0.2943,0.3005,0.3002,0.3001,0.2999,0.2998,0,0.218,0.216,0.2184,0.2197,0.2205,0.2243,0.2285,0.238,0.2444,0.2642,0.2697,0.2826,0.2932,0.3033,0.2996,0.3003,0.3057,0.2817,0.2777,0.293,0.2948,0.2942,0.2936,0.2609,0.2604,0.2601,0.2598,0,0.208,0.2092,0.2088,0.2122,0.2161,0.2201,0.2282,0.2339,0.249,0.2602,0.2784,0.2899,0.3018,0.2951,0.2917,0.2895,0.278,0.2745,0.3013,0.2655,0.256,0.2576,0.2583,0.2567,0.257,0.2572,0.2574,0.2575,0.2011,0.1995,0.2018,0.2039,0.209,0.2139,0.2142,0.2287,0.2396,0.2551,0.2732,0.2843,0.2894,0.2781,0.2672,0.2516,0.2709,0.256,0.2571,0.2585,0.2529,0.2437,0.2406,0.2408,0.241,0.2411,0.2413,0,0.1933,0.1926,0.1946,0.1964,0.2003,0.2036,0.212,0.2167,0.2271,0.2457,0.2592,0.2479,0.247,0.2477,0.2243,0.2191,0.2154,0.2056,0.2017,0.2054,0.2085,0.2001,0.1738,0.1735,0.1732,0.1729,0,0,0.1896,0.1881,0.1892,0.1893,0.1891,0.192,0.1933,0.2013,0.2138,0.2217,0.2245,0.2447,0.2537,0.2157,0.2066,0.1878,0.1947,0.1793,0.2358,0.2362,0.2389,0.2419,0.2337,0,0,0,0,0]},{"header":{"parameterUnit":"m.s-1","parameterCategory":2,"la1":30.2991,"la2":30.254,"lo1":-89.0895,"lo2":-89.0444,"dy":0.0017,"dx":0.0017,"nx":28,"ny":28,"refTime":"2024-02-03T09:00:00:Z","depth":"2","parameterNumber":3,"parameterNumberName":"V-component_of_CURRENTS"},"data":[0,0,0,0,0,0,0,0,0,0,0,0,0,0,0,0,0,0,0,0,0,0,0,0,0,0,0,0,0,0,0,0,0,0,0,0,0,0,0,0,0,0,0,0,0,0,0,0,0,0,0,0,0,0,0,0,0,0,0.0064,0.0064,0,0.001,0.001,0.0009,-0.0021,-0.0021,-0.0021,-0.0021,-0.0125,-0.0127,-0.013,0,0,0,0,0,0,0,0,0,0,0,0,0,0.0097,0.0097,0.0064,0.0063,0.0063,0.001,0.001,0.0009,-0.0021,-0.0021,-0.0021,-0.0021,-0.0124,-0.0127,-0.013,0,0,0,0,0,0,0,0,0,0,0,0,0,0.0067,0.0097,0.0064,0.0042,0.004,0.0011,0.001,0.0009,-0.0021,-0.0021,-0.0021,-0.0021,-0.0123,-0.0127,-0.0131,-0.0155,0,0,-0.0143,-0.0145,0,0,0,0,0,0,0,0,0.0069,0.0066,0.0046,0.0044,0.0041,0.0002,-0.0017,-0.0048,-0.0021,0.0002,-0.0021,-0.0021,-0.0087,-0.0094,-0.0104,-0.016,-0.0164,-0.0144,-0.0146,-0.0148,-0.0149,0,0,0,0,0,0,0,0.0071,0.0068,0.0042,0.0045,0.0042,0.002,0.0016,-0.0023,-0.0043,-0.0,-0.0002,-0.0007,-0.0089,-0.01,-0.0107,-0.0166,-0.0144,-0.0147,-0.015,-0.0151,-0.0167,-0.0165,0,0,0,0,0,0,0.0081,0.007,0.0044,0.0041,0.0056,0.002,0.0015,0.0014,-0.0041,-0.0049,-0.0007,-0.0009,-0.0093,-0.0102,-0.011,-0.0074,-0.0148,-0.0152,-0.0154,-0.0169,-0.0167,-0.0164,0,0,0,0,0,0,0.0082,0.0079,0.0046,0.0054,0.0048,0.002,0.0018,0.0013,0.0007,-0.0046,-0.0055,-0.0007,-0.0093,-0.0105,-0.0115,-0.0081,-0.0154,-0.0157,-0.0171,-0.0168,-0.0165,-0.0045,0,0,0,0,0,0,0.0083,0.008,0.0084,0.0055,0.0048,0.0038,0.0018,0.0012,0.0004,0.0002,-0.0049,-0.0059,-0.0094,-0.0108,-0.0119,-0.0088,-0.0161,-0.0174,-0.017,-0.0166,-0.0051,-0.0038,-0.0026,0,0,0,0,0,0.0085,0.0085,0.0085,0.0081,0.0055,0.0038,0.0033,0.0011,0.0004,0.0005,-0.0011,-0.0057,-0.0091,-0.011,-0.0123,-0.0092,-0.0176,-0.0171,-0.0167,-0.0057,-0.004,-0.0027,0,0,0,0,0,0,0.0103,0.0081,0.008,0.0076,0.0065,0.0033,0.0026,0.0018,0.0004,0.0,-0.0041,-0.0052,-0.0044,-0.0084,-0.0104,-0.0082,-0.0138,-0.0136,-0.005,-0.0035,-0.0023,0.0018,-0.0164,0,0,0,0,0,0.0111,0.0105,0.0087,0.0086,0.0079,0.0057,0.0048,0.0036,0.0018,0.0012,-0.0011,-0.0032,-0.0037,-0.0048,-0.0069,-0.0069,-0.01,-0.0053,-0.0041,-0.003,-0.0003,-0.0011,0.0004,-0.0149,-0.0149,-0.0149,0,0,0.0118,0.0106,0.0103,0.009,0.0075,0.0074,0.0052,0.0039,0.0059,0.0001,0.0022,0.0004,-0.0026,-0.001,-0.0011,-0.004,-0.0005,-0.0024,-0.0015,0.0007,-0.0004,0.0011,0.0024,-0.0146,-0.0147,-0.0147,0,0,0.0124,0.012,0.0115,0.0107,0.0091,0.0084,0.0086,0.0069,0.0084,0.0098,0.0079,0.0095,0.0062,0.0072,0.0067,0.0133,0.0061,0.0117,0.0209,0.0201,0.0214,0.0225,0.0191,0.0197,0.0122,0.0123,0.0123,0,0.0137,0.013,0.0113,0.0107,0.0106,0.0095,0.0097,0.0115,0.0107,0.014,0.0119,0.0147,0.0113,0.0167,0.0199,0.0163,0.0134,0.0152,0.0218,0.0228,0.0237,0.0199,0.0205,0.0129,0.0128,0.0127,0.0127,0,0.014,0.0136,0.0132,0.0129,0.0128,0.0126,0.0143,0.0168,0.0187,0.0217,0.0283,0.0268,0.029,0.0287,0.0262,0.0324,0.0273,0.0234,0.018,0.026,0.0214,0.0218,0.0138,0.0136,0.0134,0.0132,0,0,0.0169,0.014,0.0141,0.0144,0.0138,0.0142,0.0188,0.0241,0.0292,0.0332,0.0416,0.0442,0.0456,0.0455,0.0436,0.0444,0.0473,0.0376,0.0373,0.0344,0.0437,0.0485,0.0492,0.0438,0.044,0.0442,0.0375,0,0.0182,0.0177,0.016,0.0176,0.0179,0.0187,0.0233,0.0285,0.0338,0.0422,0.0483,0.0536,0.0515,0.0526,0.0548,0.0517,0.0492,0.0494,0.0365,0.0361,0.0395,0.0503,0.0356,0.0294,0.0378,0.0379,0.0379,0,0.0197,0.0192,0.0199,0.0208,0.0212,0.0226,0.03,0.0337,0.0455,0.0498,0.0593,0.0633,0.0724,0.0651,0.0666,0.0668,0.0559,0.0509,0.0504,0.0517,0.0419,0.0231,0.0297,0.0385,0.0384,0.0384,0.0384,0,0.0237,0.0227,0.0237,0.0237,0.0245,0.0269,0.0289,0.0372,0.0437,0.0554,0.0611,0.0725,0.0775,0.0737,0.0719,0.0664,0.0707,0.0595,0.0518,0.0517,0.0357,0.0342,0.0526,0.0526,0.0527,0.0527,0.0527,0,0.0265,0.0274,0.0256,0.0264,0.0307,0.0293,0.037,0.0405,0.0492,0.0599,0.0654,0.075,0.0794,0.0852,0.077,0.074,0.0744,0.0574,0.0531,0.0395,0.0385,0.0433,0.0423,0.0524,0.0525,0.0525,0.0526,0,0.0303,0.0288,0.0311,0.0317,0.0325,0.0361,0.0412,0.0487,0.0516,0.0653,0.0695,0.0802,0.0889,0.093,0.0887,0.08,0.0749,0.0683,0.0542,0.0487,0.0517,0.0514,0.057,0.0572,0.0573,0.0574,0.0575,0,0.0319,0.0326,0.0357,0.0407,0.0411,0.0456,0.0509,0.0523,0.0601,0.0693,0.0779,0.0884,0.0991,0.1012,0.0903,0.0812,0.0807,0.0571,0.0446,0.0585,0.0535,0.0529,0.0524,0.024,0.0238,0.0236,0.0235,0,0.0356,0.037,0.0408,0.0512,0.0572,0.0625,0.0684,0.0728,0.077,0.0839,0.0955,0.1023,0.1018,0.0922,0.082,0.0716,0.0612,0.0537,0.0726,0.0297,0.0281,0.023,0.0234,0.0222,0.0223,0.0224,0.0225,0.0226,0.0405,0.0467,0.0546,0.0652,0.0728,0.0805,0.0849,0.0845,0.0918,0.0914,0.1024,0.1007,0.0909,0.0725,0.061,0.0478,0.0513,0.0358,0.0358,0.036,0.0381,0.0374,0.0331,0.0333,0.0335,0.0336,0.0337,0,0.0449,0.0576,0.0689,0.0819,0.086,0.0922,0.0993,0.0909,0.0907,0.0901,0.0906,0.0773,0.0616,0.0556,0.0282,0.0155,0.0077,0.0134,0.0009,0.0024,0.0036,0.0036,-0.0103,-0.0104,-0.0105,-0.0106,0,0,0.0499,0.0614,0.0689,0.0855,0.0978,0.0965,0.0988,0.0879,0.0795,0.0715,0.0698,0.0634,0.0607,0.0313,0.0154,0.0012,0.0037,-0.0022,0.0331,0.0211,0.0224,0.016,0.0178,0,0,0,0,0]}],[{"header":{"parameterUnit":"m.s-1","parameterCategory":2,"la1":30.2991,"la2":30.254,"lo1":-89.0895,"lo2":-89.0444,"dy":0.0017,"dx":0.0017,"nx":28,"ny":28,"refTime":"2024-02-03T09:00:00:Z","depth":"4","parameterNumber":2,"parameterNumberName":"U-component_of_CURRENTS"},"data":[0,0,0,0,0,0,0,0,0,0,0,0,0,0,0,0,0,0,0,0,0,0,0,0,0,0,0,0,0,0,0,0,0,0,0,0,0,0,0,0,0,0,0,0,0,0,0,0,0,0,0,0,0,0,0,0,0,0,0.18,0.1801,0,0.1878,0.1879,0.188,0.1964,0.1965,0.1966,0.1967,0.2113,0.2116,0.2119,0,0,0,0,0,0,0,0,0,0,0,0,0,0.171,0.1712,0.18,0.1801,0.1802,0.1878,0.1879,0.188,0.1963,0.1965,0.1966,0.1968,0.2112,0.2116,0.2119,0,0,0,0,0,0,0,0,0,0,0,0,0,0.1764,0.1712,0.18,0.1853,0.1859,0.1878,0.1879,0.188,0.1963,0.1965,0.1967,0.1969,0.2111,0.2115,0.2119,0.2107,0,0,0.2132,0.2134,0,0,0,0,0,0,0,0,0.1761,0.1767,0.1845,0.185,0.1856,0.1914,0.1901,0.196,0.1963,0.1923,0.1967,0.1969,0.2052,0.2061,0.2069,0.2113,0.212,0.2132,0.2135,0.2136,0.2138,0,0,0,0,0,0,0,0.1757,0.1764,0.183,0.1845,0.1853,0.1869,0.1879,0.1912,0.1976,0.1926,0.1933,0.1942,0.2056,0.2065,0.2074,0.2122,0.2132,0.2136,0.2138,0.214,0.229,0.2291,0,0,0,0,0,0,0.1748,0.1761,0.1828,0.1833,0.1813,0.187,0.1881,0.1893,0.1975,0.1989,0.194,0.1946,0.2057,0.2069,0.2079,0.2173,0.2136,0.214,0.2142,0.2288,0.229,0.2292,0,0,0,0,0,0,0.1746,0.1753,0.1825,0.1799,0.181,0.1869,0.1882,0.1893,0.194,0.1985,0.2001,0.198,0.2059,0.2074,0.2141,0.2176,0.2142,0.2146,0.2286,0.2289,0.2291,0.2294,0,0,0,0,0,0,0.1743,0.1752,0.1774,0.1798,0.1811,0.1853,0.1881,0.1893,0.1941,0.195,0.2023,0.2037,0.2062,0.2135,0.2145,0.2181,0.2149,0.2284,0.2287,0.229,0.2292,0.2296,0.23,0,0,0,0,0,0.1739,0.1755,0.1774,0.1783,0.1833,0.1854,0.1862,0.191,0.1941,0.1959,0.2017,0.2036,0.2161,0.2139,0.2151,0.2188,0.2283,0.2287,0.229,0.229,0.2295,0.23,0,0,0,0,0,0,0.1732,0.1766,0.1787,0.1816,0.1842,0.1869,0.1897,0.1924,0.1981,0.2006,0.2049,0.2066,0.214,0.2162,0.2137,0.2242,0.2228,0.2234,0.2224,0.223,0.2233,0.2213,0.2152,0,0,0,0,0,0.1736,0.176,0.1788,0.1814,0.183,0.1868,0.1891,0.192,0.1964,0.1993,0.2043,0.2103,0.2155,0.2191,0.2235,0.2286,0.2298,0.2322,0.2326,0.2329,0.2322,0.2383,0.2391,0.2303,0.2303,0.2303,0,0,0.1742,0.1764,0.178,0.1815,0.1844,0.1865,0.1888,0.1928,0.1954,0.1999,0.2067,0.2118,0.2172,0.2234,0.2269,0.2263,0.2357,0.2333,0.2335,0.2326,0.2387,0.2395,0.2403,0.2305,0.2305,0.2305,0,0,0.1748,0.1783,0.1803,0.1826,0.1869,0.1885,0.1902,0.1947,0.1981,0.2034,0.2084,0.2151,0.2225,0.227,0.2301,0.2352,0.2374,0.2382,0.2388,0.2448,0.2455,0.2461,0.2466,0.2473,0.2386,0.2386,0.2386,0,0.1757,0.1786,0.1811,0.1834,0.1861,0.1896,0.1923,0.1948,0.2012,0.204,0.2061,0.2183,0.2236,0.2308,0.2337,0.2359,0.2383,0.2363,0.2451,0.2458,0.2464,0.2468,0.2476,0.2386,0.2386,0.2386,0.2386,0,0.1764,0.1806,0.182,0.186,0.1886,0.1916,0.1949,0.1986,0.203,0.2057,0.2138,0.2202,0.2275,0.2311,0.2344,0.2426,0.2423,0.2446,0.2432,0.2473,0.2474,0.2482,0.2387,0.2387,0.2387,0.2386,0,0,0.1737,0.1813,0.1823,0.1859,0.1909,0.193,0.1969,0.201,0.2049,0.2101,0.215,0.2243,0.2281,0.2319,0.2374,0.2431,0.2502,0.2467,0.247,0.2458,0.2606,0.2442,0.2435,0.2554,0.2556,0.2558,0.2579,0,0.1742,0.1796,0.183,0.1888,0.1919,0.1965,0.1999,0.2042,0.2083,0.2133,0.2185,0.2257,0.2281,0.234,0.2395,0.2492,0.2528,0.2491,0.258,0.2581,0.2421,0.244,0.2564,0.2585,0.2587,0.2588,0.2589,0,0.1731,0.1775,0.1837,0.1919,0.1939,0.1979,0.2048,0.2085,0.2142,0.2179,0.223,0.2268,0.2354,0.2374,0.2501,0.2485,0.2541,0.2593,0.2596,0.2445,0.2432,0.2544,0.2603,0.2602,0.2601,0.26,0.2599,0,0.1692,0.1778,0.1836,0.1863,0.1952,0.1998,0.2047,0.2108,0.2152,0.2217,0.2262,0.2322,0.2395,0.2464,0.255,0.2551,0.2672,0.2683,0.2566,0.2554,0.2694,0.2687,0.2757,0.2757,0.2757,0.2757,0.2757,0,0.1665,0.1716,0.1835,0.1865,0.1936,0.2004,0.2077,0.2125,0.2205,0.2257,0.2299,0.2349,0.2437,0.2499,0.2553,0.2564,0.2671,0.2552,0.2552,0.2692,0.2685,0.2698,0.269,0.2757,0.2757,0.2757,0.2757,0,0.1603,0.1684,0.1758,0.1878,0.1921,0.1973,0.2098,0.214,0.2233,0.2304,0.2332,0.2405,0.2472,0.2514,0.2627,0.2567,0.26,0.2581,0.2689,0.2699,0.2432,0.2426,0.2425,0.242,0.2415,0.2411,0.2408,0,0.1571,0.1609,0.1755,0.1807,0.1871,0.1966,0.2023,0.2135,0.2179,0.233,0.235,0.2437,0.2468,0.2453,0.2524,0.2529,0.2528,0.2492,0.2474,0.2399,0.2401,0.2402,0.2401,0.24,0.2399,0.2398,0.2397,0,0.151,0.1583,0.1647,0.1755,0.1839,0.1909,0.2008,0.203,0.2157,0.2269,0.2308,0.2312,0.2362,0.2369,0.2368,0.2392,0.2479,0.2443,0.2453,0.2436,0.2369,0.2376,0.2381,0.238,0.2383,0.2384,0.2385,0,0.1472,0.1503,0.1609,0.1689,0.1787,0.183,0.1885,0.1948,0.2008,0.2165,0.2184,0.2276,0.2363,0.2303,0.2328,0.2292,0.2271,0.2202,0.2224,0.2243,0.2169,0.2057,0.1961,0,0,0,0,0,0.1427,0.1464,0.1535,0.1618,0.1706,0.1768,0.1867,0.192,0.2045,0.203,0.2099,0.2134,0.2132,0.2176,0.2102,0.2241,0.2273,0.2144,0.2205,0.229,0.2309,0.2237,0,0,0,0,0,0,0.1403,0.1473,0.1507,0.1545,0.1587,0.1669,0.1727,0.1807,0.1795,0.1926,0.193,0.2029,0.2048,0.2165,0.2076,0.2085,0.2083,0.2204,0.2199,0.228,0.2297,0.2312,0.2244,0,0,0,0,0]},{"header":{"parameterUnit":"m.s-1","parameterCategory":2,"la1":30.2991,"la2":30.254,"lo1":-89.0895,"lo2":-89.0444,"dy":0.0017,"dx":0.0017,"nx":28,"ny":28,"refTime":"2024-02-03T09:00:00:Z","depth":"4","parameterNumber":3,"parameterNumberName":"V-component_of_CURRENTS"},"data":[0,0,0,0,0,0,0,0,0,0,0,0,0,0,0,0,0,0,0,0,0,0,0,0,0,0,0,0,0,0,0,0,0,0,0,0,0,0,0,0,0,0,0,0,0,0,0,0,0,0,0,0,0,0,0,0,0,0,-0.0127,-0.0127,0,-0.0148,-0.0148,-0.0149,-0.0173,-0.0174,-0.0174,-0.0174,-0.0247,-0.0248,-0.025,0,0,0,0,0,0,0,0,0,0,0,0,0,-0.0164,-0.0163,-0.0127,-0.0127,-0.0127,-0.0148,-0.0148,-0.0149,-0.0173,-0.0174,-0.0174,-0.0174,-0.0246,-0.0248,-0.025,0,0,0,0,0,0,0,0,0,0,0,0,0,-0.0164,-0.0163,-0.0127,-0.0141,-0.0143,-0.0148,-0.0149,-0.0149,-0.0173,-0.0174,-0.0174,-0.0174,-0.0246,-0.0248,-0.025,-0.0257,0,0,-0.0258,-0.0259,0,0,0,0,0,0,0,0,-0.0164,-0.0162,-0.0139,-0.014,-0.0142,-0.0158,-0.0188,-0.0187,-0.0173,-0.0163,-0.0174,-0.0175,-0.0221,-0.0225,-0.0229,-0.026,-0.0264,-0.0258,-0.026,-0.0261,-0.0262,0,0,0,0,0,0,0,-0.0164,-0.0162,-0.0136,-0.0139,-0.0141,-0.0166,-0.0166,-0.0188,-0.0191,-0.0164,-0.0165,-0.0166,-0.0222,-0.0226,-0.0231,-0.0265,-0.0258,-0.026,-0.0262,-0.0263,-0.0301,-0.0301,0,0,0,0,0,0,-0.0155,-0.0161,-0.0136,-0.0137,-0.0153,-0.0165,-0.0165,-0.0153,-0.0189,-0.0195,-0.0166,-0.0167,-0.0222,-0.0228,-0.0234,-0.0235,-0.0261,-0.0263,-0.0265,-0.0302,-0.0301,-0.0301,0,0,0,0,0,0,-0.0156,-0.0152,-0.0135,-0.015,-0.0149,-0.0163,-0.015,-0.0153,-0.016,-0.019,-0.0197,-0.017,-0.0223,-0.023,-0.0246,-0.0238,-0.0264,-0.0267,-0.0302,-0.0302,-0.0301,-0.0243,0,0,0,0,0,0,-0.0157,-0.0152,-0.0144,-0.0149,-0.0148,-0.0142,-0.015,-0.0153,-0.0159,-0.0162,-0.0196,-0.0203,-0.0223,-0.0242,-0.0249,-0.0242,-0.0268,-0.0303,-0.0302,-0.0301,-0.0245,-0.024,-0.0236,0,0,0,0,0,-0.0158,-0.0143,-0.0143,-0.0141,-0.0135,-0.0142,-0.0144,-0.0157,-0.0159,-0.0164,-0.0177,-0.0202,-0.0241,-0.0244,-0.0251,-0.0245,-0.0303,-0.0302,-0.0301,-0.0247,-0.0241,-0.0236,0,0,0,0,0,0,-0.0154,-0.0144,-0.0145,-0.0127,-0.0136,-0.0146,-0.015,-0.0155,-0.0168,-0.0172,-0.0196,-0.0204,-0.0215,-0.0238,-0.024,-0.0254,-0.0277,-0.0277,-0.0233,-0.0227,-0.0223,-0.0192,-0.0271,0,0,0,0,0,-0.0148,-0.0134,-0.0137,-0.0124,-0.0128,-0.0138,-0.0143,-0.0151,-0.0162,-0.0168,-0.0186,-0.0205,-0.0216,-0.0227,-0.0247,-0.0255,-0.0275,-0.0257,-0.0252,-0.0247,-0.0227,-0.0238,-0.0232,-0.0297,-0.0297,-0.0297,0,0,-0.0142,-0.0136,-0.0127,-0.0123,-0.0131,-0.014,-0.0143,-0.015,-0.015,-0.0175,-0.0181,-0.0192,-0.0215,-0.022,-0.0228,-0.0239,-0.0246,-0.0246,-0.0242,-0.0224,-0.0236,-0.023,-0.0224,-0.0296,-0.0297,-0.0297,0,0,-0.0135,-0.0119,-0.0116,-0.0124,-0.0135,-0.014,-0.0141,-0.0151,-0.0147,-0.0152,-0.0163,-0.016,-0.0191,-0.0192,-0.0199,-0.018,-0.022,-0.0195,-0.0146,-0.0157,-0.0151,-0.0147,-0.019,-0.0189,-0.0192,-0.0192,-0.0192,0,-0.0131,-0.0124,-0.0118,-0.0128,-0.0135,-0.0139,-0.0149,-0.0145,-0.0155,-0.0139,-0.0151,-0.0143,-0.0172,-0.0149,-0.0142,-0.0167,-0.019,-0.0166,-0.0149,-0.0145,-0.0141,-0.0186,-0.0186,-0.0189,-0.019,-0.019,-0.019,0,-0.013,-0.0132,-0.0133,-0.0141,-0.0148,-0.0155,-0.0153,-0.0149,-0.0141,-0.0125,-0.0094,-0.0102,-0.009,-0.0103,-0.0118,-0.0095,-0.0129,-0.0143,-0.0161,-0.0131,-0.0181,-0.0182,-0.0185,-0.0186,-0.0187,-0.0188,0,0,-0.0101,-0.0126,-0.0128,-0.0139,-0.0155,-0.0156,-0.0152,-0.0134,-0.0111,-0.0091,-0.0041,-0.0042,-0.0015,-0.0019,-0.0027,-0.003,-0.004,-0.0068,-0.0071,-0.0105,-0.0086,-0.0074,-0.0075,-0.005,-0.0049,-0.0048,-0.0142,0,-0.0106,-0.0124,-0.0134,-0.0151,-0.0161,-0.0164,-0.0157,-0.0137,-0.011,-0.0061,-0.0015,0.0019,0.0009,0.0024,0.0029,0.0014,-0.0036,-0.0015,-0.0114,-0.0118,-0.0104,-0.0072,-0.0046,-0.0143,-0.0144,-0.0144,-0.0144,0,-0.0104,-0.0116,-0.0135,-0.0151,-0.0154,-0.0162,-0.0138,-0.0131,-0.0064,-0.0037,0.0034,0.0075,0.0139,0.0091,0.0089,0.0108,0.0001,-0.0042,-0.0047,-0.0047,-0.0105,-0.0174,-0.0146,-0.0146,-0.0146,-0.0146,-0.0146,0,-0.0084,-0.0113,-0.0124,-0.0133,-0.0152,-0.015,-0.0152,-0.0115,-0.0086,-0.0005,0.0037,0.0126,0.018,0.0133,0.0115,0.0082,0.0086,0.0015,-0.01,-0.0103,-0.0114,-0.0118,-0.0083,-0.0083,-0.0083,-0.0083,-0.0083,0,-0.008,-0.0091,-0.0116,-0.0122,-0.0123,-0.0139,-0.0115,-0.0106,-0.0052,0.0008,0.0063,0.0132,0.019,0.0227,0.0146,0.0089,0.0107,-0.0076,-0.0109,-0.0094,-0.0094,-0.0117,-0.012,-0.0086,-0.0086,-0.0085,-0.0084,0,-0.0067,-0.0084,-0.0097,-0.0115,-0.0117,-0.0116,-0.0105,-0.0078,-0.0047,0.0037,0.0072,0.0168,0.0233,0.0267,0.0216,0.0127,0.0057,-0.0024,0.0019,-0.0013,-0.0163,-0.0162,-0.0174,-0.0174,-0.0174,-0.0174,-0.0174,0,-0.0066,-0.0074,-0.0089,-0.0088,-0.0099,-0.0095,-0.0087,-0.007,-0.0033,0.0055,0.0107,0.0202,0.0265,0.0256,0.0236,0.0131,0.0054,-0.0034,-0.0127,-0.0132,-0.0164,-0.0163,-0.0162,-0.0174,-0.0174,-0.0174,-0.0174,0,-0.0072,-0.0076,-0.0087,-0.0083,-0.0079,-0.006,-0.0042,-0.0013,0.0032,0.0069,0.0157,0.0173,0.0243,0.0261,0.0221,0.0106,0.0041,-0.0036,-0.0041,-0.013,-0.0133,-0.0164,-0.0163,-0.0174,-0.0174,-0.0174,-0.0174,0,-0.0078,-0.0089,-0.01,-0.009,-0.0073,-0.0035,-0.0021,0.0024,0.0058,0.0148,0.018,0.0246,0.031,0.024,0.0199,0.0155,0.0046,-0.0088,-0.0093,-0.0094,-0.0028,-0.0017,-0.0035,0,0,0,0,0,-0.0097,-0.0114,-0.0107,-0.0094,-0.0061,-0.0043,0.0001,0.0022,0.0075,0.0138,0.0159,0.0221,0.0193,0.0194,0.0146,0.0131,0.0018,0.0054,-0.0143,-0.0173,-0.0173,-0.0105,0,0,0,0,0,0,-0.0119,-0.013,-0.0123,-0.0088,-0.0066,-0.0028,0.0007,0.005,0.0083,0.0137,0.0159,0.0136,0.0152,0.0263,0.014,0.0123,-0.0042,0.0058,0.0053,-0.0173,-0.0173,-0.0173,-0.0103,0,0,0,0,0]}]]